| time (UTC) | temp F | wind direction | speed knots | gust knots | rain 1hr in | rain 24hr in | rain mn in | humidity % | barometer mb |
| 20260505163534 | 79 | 221 | 18.2 | 0.0 | 0.00 | 0.00 | 0.00 | 39 | 1002.5 |
| 20260505163033 | 78 | 215 | 20.9 | 0.0 | 0.00 | 0.00 | 0.00 | 45 | 1002.6 |
| 20260505162532 | 78 | 200 | 21.7 | 0.0 | 0.00 | 0.00 | 0.00 | 43 | 1002.7 |
| 20260505162032 | 77 | 253 | 20.9 | 0.0 | 0.00 | 0.00 | 0.00 | 45 | 1002.7 |
| 20260505161531 | 77 | 211 | 19.1 | 0.0 | 0.00 | 0.00 | 0.00 | 45 | 1002.9 |
| 20260505161030 | 77 | 246 | 16.5 | 0.0 | 0.00 | 0.00 | 0.00 | 49 | 1003.0 |
| 20260505160528 | 76 | 216 | 16.5 | 0.0 | 0.00 | 0.00 | 0.00 | 48 | 1003.0 |
| 20260505153018 | 72 | 223 | 13.9 | 0.0 | 0.00 | 0.00 | 0.00 | 60 | 1003.6 |
| 20260505152517 | 71 | 250 | 13.0 | 0.0 | 0.00 | 0.00 | 0.00 | 60 | 1003.7 |
| 20260505152015 | 70 | 202 | 10.4 | 0.0 | 0.00 | 0.00 | 0.00 | 62 | 1003.9 |
| 20260505151517 | 69 | 219 | 8.7 | 0.0 | 0.00 | 0.00 | 0.00 | 64 | 1003.8 |
| 20260505151012 | 66 | 222 | 7.8 | 0.0 | 0.00 | 0.00 | 0.00 | 67 | 1004.0 |
| 20260505150511 | 65 | 228 | 7.8 | 0.0 | 0.00 | 0.00 | 0.00 | 72 | 1004.0 |
| 20260505140504 | 56 | 317 | 2.6 | 0.0 | 0.00 | 0.00 | 0.00 | 84 | 1004.6 |
| 20260505124559 | 59 | 212 | 3.5 | 0.0 | 0.00 | 0.00 | 0.00 | 74 | 1005.2 |
| 20260505124059 | 59 | 133 | 4.3 | 0.0 | 0.00 | 0.00 | 0.00 | 73 | 1004.9 |
| 20260505123557 | 59 | 138 | 5.2 | 0.0 | 0.00 | 0.00 | 0.00 | 74 | 1004.8 |
| 20260505123104 | 58 | 143 | 4.3 | 0.0 | 0.00 | 0.00 | 0.00 | 74 | 1004.8 |
| 20260505122557 | 58 | 133 | 4.3 | 0.0 | 0.00 | 0.00 | 0.00 | 74 | 1004.9 |
| 20260505122053 | 57 | 149 | 5.2 | 0.0 | 0.00 | 0.00 | 0.00 | 75 | 1004.9 |
| 20260505121553 | 57 | 150 | 5.2 | 0.0 | 0.00 | 0.00 | 0.00 | 75 | 1004.9 |
| 20260505121051 | 56 | 136 | 6.1 | 0.0 | 0.00 | 0.00 | 0.00 | 77 | 1005.0 |
| 20260505120550 | 56 | 161 | 7.0 | 0.0 | 0.00 | 0.00 | 0.00 | 78 | 1005.1 |
| 20260505120048 | 55 | 132 | 7.0 | 0.0 | 0.00 | 0.00 | 0.00 | 78 | 1005.1 |
| 20260505115548 | 54 | 131 | 7.0 | 0.0 | 0.00 | 0.00 | 0.00 | 80 | 1005.1 |
| 20260505115046 | 54 | 153 | 5.2 | 0.0 | 0.00 | 0.00 | 0.00 | 81 | 1005.4 |
| 20260505114547 | 53 | 125 | 2.6 | 0.0 | 0.00 | 0.00 | 0.00 | 85 | 1005.4 |
| 20260505114046 | 53 | 284 | 2.6 | 0.0 | 0.00 | 0.00 | 0.00 | 86 | 1005.4 |
| 20260505113545 | 52 | 284 | 2.6 | 0.0 | 0.00 | 0.00 | 0.00 | 87 | 1005.4 |
| 20260505113044 | 52 | 306 | 1.7 | 0.0 | 0.00 | 0.00 | 0.00 | 87 | 1005.4 |
| 20260505112544 | 52 | 306 | 2.6 | 0.0 | 0.00 | 0.00 | 0.00 | 87 | 1005.3 |
| 20260505112043 | 52 | 309 | 2.6 | 0.0 | 0.00 | 0.00 | 0.00 | 87 | 1005.3 |
| 20260505111551 | 52 | 309 | 2.6 | 0.0 | 0.00 | 0.00 | 0.00 | 86 | 1005.2 |
| 20260505111041 | 52 | 294 | 2.6 | 0.0 | 0.00 | 0.00 | 0.00 | 85 | 1005.0 |
| 20260505110540 | 52 | 294 | 2.6 | 0.0 | 0.00 | 0.00 | 0.00 | 86 | 1004.9 |
| 20260505102039 | 52 | 123 | 5.2 | 0.0 | 0.00 | 0.00 | 0.00 | 82 | 1004.7 |
| 20260505101539 | 52 | 128 | 4.3 | 0.0 | 0.00 | 0.00 | 0.00 | 82 | 1004.8 |
| 20260505101042 | 51 | 144 | 3.5 | 0.0 | 0.00 | 0.00 | 0.00 | 82 | 1004.9 |
| 20260505100542 | 51 | 159 | 4.3 | 0.0 | 0.00 | 0.00 | 0.00 | 81 | 1004.8 |
| 20260505100048 | 51 | 161 | 3.5 | 0.0 | 0.00 | 0.00 | 0.00 | 84 | 1004.9 |
| 20260505095541 | 51 | 157 | 0.0 | 0.0 | 0.00 | 0.00 | 0.00 | 84 | 1004.9 |
| 20260505095038 | 51 | 339 | 0.0 | 0.0 | 0.00 | 0.00 | 0.00 | 84 | 1004.8 |
| 20260505094539 | 51 | 339 | 0.0 | 0.0 | 0.00 | 0.00 | 0.00 | 83 | 1004.8 |
| 20260505094037 | 51 | 339 | 0.0 | 0.0 | 0.00 | 0.00 | 0.00 | 83 | 1004.4 |
| 20260505093538 | 51 | 339 | 0.0 | 0.0 | 0.00 | 0.00 | 0.00 | 80 | 1004.6 |
| 20260505093039 | 51 | 339 | 0.0 | 0.0 | 0.00 | 0.00 | 0.00 | 81 | 1004.7 |
| 20260505092537 | 52 | 339 | 0.0 | 0.0 | 0.00 | 0.00 | 0.00 | 81 | 1004.6 |
| 20260505092036 | 52 | 339 | 0.9 | 0.0 | 0.00 | 0.00 | 0.00 | 81 | 1004.7 |
| 20260505091551 | 52 | 339 | 1.7 | 0.0 | 0.00 | 0.00 | 0.00 | 81 | 1004.7 |
| 20260505091039 | 52 | 341 | 0.9 | 0.0 | 0.00 | 0.00 | 0.00 | 82 | 1004.6 |
| 20260505090538 | 52 | 341 | 0.9 | 0.0 | 0.00 | 0.00 | 0.00 | 82 | 1004.4 |
| 20260505090050 | 52 | 341 | 2.6 | 0.0 | 0.00 | 0.00 | 0.00 | 83 | 1004.6 |
| 20260505085534 | 52 | 338 | 3.5 | 0.0 | 0.00 | 0.00 | 0.00 | 82 | 1004.7 |
| 20260505085034 | 53 | 338 | 3.5 | 0.0 | 0.00 | 0.00 | 0.00 | 80 | 1004.8 |
| 20260505084537 | 53 | 329 | 1.7 | 0.0 | 0.00 | 0.00 | 0.00 | 80 | 1004.8 |
| 20260505084034 | 54 | 178 | 0.0 | 0.0 | 0.00 | 0.00 | 0.00 | 75 | 1004.8 |
| 20260505083534 | 54 | 178 | 0.9 | 0.0 | 0.00 | 0.00 | 0.00 | 74 | 1004.7 |
| 20260505083041 | 54 | 178 | 0.9 | 0.0 | 0.00 | 0.00 | 0.00 | 73 | 1004.9 |
| 20260505082533 | 54 | 66 | 0.9 | 0.0 | 0.00 | 0.00 | 0.00 | 70 | 1005.0 |
| 20260505082033 | 54 | 66 | 1.7 | 0.0 | 0.00 | 0.00 | 0.00 | 70 | 1005.0 |
| 20260505081550 | 54 | 308 | 4.3 | 0.0 | 0.00 | 0.00 | 0.00 | 70 | 1005.0 |
| 20260505081032 | 54 | 123 | 6.1 | 0.0 | 0.00 | 0.00 | 0.00 | 68 | 1004.9 |
| 20260505080534 | 54 | 139 | 7.0 | 0.0 | 0.00 | 0.00 | 0.00 | 67 | 1004.7 |
| 20260505080039 | 54 | 145 | 7.0 | 0.0 | 0.00 | 0.00 | 0.00 | 68 | 1004.7 |
| 20260505075529 | 53 | 132 | 6.1 | 0.0 | 0.00 | 0.00 | 0.00 | 69 | 1004.7 |
| 20260505075028 | 53 | 132 | 7.0 | 0.0 | 0.00 | 0.00 | 0.00 | 68 | 1004.7 |
| 20260505074528 | 53 | 142 | 7.0 | 0.0 | 0.00 | 0.00 | 0.00 | 69 | 1004.7 |
| 20260505074027 | 53 | 124 | 6.1 | 0.0 | 0.00 | 0.00 | 0.00 | 70 | 1004.7 |
| 20260505073527 | 52 | 135 | 6.1 | 0.0 | 0.00 | 0.00 | 0.00 | 71 | 1004.7 |
| 20260505073024 | 52 | 138 | 6.1 | 0.0 | 0.00 | 0.00 | 0.00 | 71 | 1004.7 |
| 20260505072521 | 51 | 140 | 6.1 | 0.0 | 0.00 | 0.00 | 0.00 | 72 | 1004.6 |
| 20260505072020 | 50 | 136 | 6.1 | 0.0 | 0.00 | 0.00 | 0.00 | 73 | 1004.5 |
| 20260505071525 | 50 | 134 | 6.1 | 0.0 | 0.00 | 0.00 | 0.00 | 75 | 1004.6 |
| 20260505071018 | 49 | 137 | 5.2 | 0.0 | 0.00 | 0.00 | 0.00 | 77 | 1004.6 |
| 20260505070518 | 49 | 142 | 3.5 | 0.0 | 0.00 | 0.00 | 0.00 | 76 | 1004.7 |
| 20260505070020 | 49 | 137 | 0.9 | 0.0 | 0.00 | 0.00 | 0.00 | 76 | 1004.6 |
| 20260505065516 | 49 | 198 | 0.9 | 0.0 | 0.00 | 0.00 | 0.00 | 76 | 1004.7 |
| 20260505065016 | 48 | 200 | 1.7 | 0.0 | 0.00 | 0.00 | 0.00 | 77 | 1004.7 |
| 20260505064516 | 48 | 133 | 3.5 | 0.0 | 0.00 | 0.00 | 0.00 | 77 | 1004.8 |
| 20260505064015 | 48 | 157 | 5.2 | 0.0 | 0.00 | 0.00 | 0.00 | 79 | 1004.8 |
| 20260505063515 | 48 | 144 | 5.2 | 0.0 | 0.00 | 0.00 | 0.00 | 79 | 1004.8 |
| 20260505063015 | 48 | 133 | 3.5 | 0.0 | 0.00 | 0.00 | 0.00 | 80 | 1004.8 |
| 20260505062514 | 48 | 135 | 2.6 | 0.0 | 0.00 | 0.00 | 0.00 | 80 | 1004.8 |
| 20260505062013 | 48 | 223 | 1.7 | 0.0 | 0.00 | 0.00 | 0.00 | 81 | 1004.8 |
| 20260505061524 | 48 | 223 | 0.9 | 0.0 | 0.00 | 0.00 | 0.00 | 81 | 1004.7 |
| 20260505061012 | 48 | 223 | 0.9 | 0.0 | 0.00 | 0.00 | 0.00 | 81 | 1004.8 |
| 20260505060512 | 48 | 222 | 2.6 | 0.0 | 0.00 | 0.00 | 0.00 | 79 | 1004.8 |
| 20260505060112 | 48 | 138 | 3.5 | 0.0 | 0.00 | 0.00 | 0.00 | 80 | 1004.8 |
| 20260505055511 | 48 | 138 | 4.3 | 0.0 | 0.00 | 0.00 | 0.00 | 80 | 1004.8 |
| 20260505055012 | 48 | 133 | 4.3 | 0.0 | 0.00 | 0.00 | 0.00 | 80 | 1004.8 |
| 20260505054518 | 48 | 133 | 4.3 | 0.0 | 0.00 | 0.00 | 0.00 | 80 | 1004.8 |
| 20260505054011 | 48 | 132 | 4.3 | 0.0 | 0.00 | 0.00 | 0.00 | 80 | 1004.8 |
| 20260505053511 | 48 | 134 | 5.2 | 0.0 | 0.00 | 0.00 | 0.00 | 80 | 1004.9 |
| 20260505053011 | 48 | 132 | 5.2 | 0.0 | 0.00 | 0.00 | 0.00 | 80 | 1004.9 |
| 20260505052509 | 48 | 130 | 4.3 | 0.0 | 0.00 | 0.00 | 0.00 | 80 | 1004.9 |
| 20260505052009 | 48 | 136 | 4.3 | 0.0 | 0.00 | 0.00 | 0.00 | 80 | 1004.9 |
| 20260505051509 | 48 | 134 | 4.3 | 0.0 | 0.00 | 0.00 | 0.00 | 81 | 1005.0 |
| 20260505051009 | 48 | 137 | 3.5 | 0.0 | 0.00 | 0.00 | 0.00 | 80 | 1004.9 |
| 20260505050508 | 48 | 138 | 3.5 | 0.0 | 0.00 | 0.00 | 0.00 | 80 | 1004.9 |
| 20260505041503 | 49 | 132 | 3.5 | 0.0 | 0.00 | 0.00 | 0.00 | 78 | 1004.9 |
| 20260505041002 | 49 | 131 | 3.5 | 0.0 | 0.00 | 0.00 | 0.00 | 79 | 1004.9 |
| 20260505040501 | 49 | 131 | 3.5 | 0.0 | 0.00 | 0.00 | 0.00 | 78 | 1004.9 |
| 20260505040100 | 49 | 130 | 3.5 | 0.0 | 0.00 | 0.00 | 0.00 | 78 | 1004.8 |
| 20260505035558 | 49 | 130 | 4.3 | 0.0 | 0.00 | 0.00 | 0.00 | 78 | 1004.9 |
| 20260505035100 | 50 | 131 | 4.3 | 0.0 | 0.00 | 0.00 | 0.00 | 78 | 1004.8 |
| 20260505034558 | 50 | 131 | 4.3 | 0.0 | 0.00 | 0.00 | 0.00 | 77 | 1004.8 |
| 20260505034056 | 50 | 131 | 4.3 | 0.0 | 0.00 | 0.00 | 0.00 | 77 | 1004.7 |
| 20260505033556 | 50 | 132 | 5.2 | 0.0 | 0.00 | 0.00 | 0.00 | 77 | 1004.8 |
| 20260505033056 | 50 | 132 | 4.3 | 0.0 | 0.00 | 0.00 | 0.00 | 77 | 1004.8 |
| 20260505032554 | 50 | 134 | 4.3 | 0.0 | 0.00 | 0.00 | 0.00 | 76 | 1004.8 |
| 20260505032053 | 50 | 138 | 4.3 | 0.0 | 0.00 | 0.00 | 0.00 | 75 | 1004.9 |
| 20260505031556 | 51 | 138 | 4.3 | 0.0 | 0.00 | 0.00 | 0.00 | 75 | 1004.9 |
| 20260505031052 | 51 | 140 | 4.3 | 0.0 | 0.00 | 0.00 | 0.00 | 75 | 1004.8 |
| 20260505030556 | 51 | 142 | 4.3 | 0.0 | 0.00 | 0.00 | 0.00 | 74 | 1004.8 |
| 20260505030051 | 51 | 146 | 3.5 | 0.0 | 0.00 | 0.00 | 0.00 | 74 | 1004.8 |
| 20260505025551 | 51 | 157 | 3.5 | 0.0 | 0.00 | 0.00 | 0.00 | 74 | 1004.8 |
| 20260505025050 | 52 | 161 | 3.5 | 0.0 | 0.00 | 0.00 | 0.00 | 74 | 1004.8 |
| 20260505024606 | 52 | 161 | 2.6 | 0.0 | 0.00 | 0.00 | 0.00 | 73 | 1004.7 |
| 20260505024054 | 52 | 161 | 2.6 | 0.0 | 0.00 | 0.00 | 0.00 | 75 | 1004.8 |
| 20260505023550 | 52 | 161 | 2.6 | 0.0 | 0.00 | 0.00 | 0.00 | 75 | 1004.8 |
| 20260505023050 | 53 | 161 | 2.6 | 0.0 | 0.00 | 0.00 | 0.00 | 75 | 1004.8 |
| 20260505022550 | 53 | 161 | 2.6 | 0.0 | 0.00 | 0.00 | 0.00 | 74 | 1004.9 |
| 20260505022051 | 53 | 162 | 2.6 | 0.0 | 0.00 | 0.00 | 0.00 | 74 | 1004.9 |
| 20260505021604 | 53 | 161 | 2.6 | 0.0 | 0.00 | 0.00 | 0.00 | 73 | 1004.9 |
| 20260505021051 | 54 | 161 | 2.6 | 0.0 | 0.00 | 0.00 | 0.00 | 73 | 1004.9 |
| 20260505020549 | 54 | 161 | 2.6 | 0.0 | 0.00 | 0.00 | 0.00 | 73 | 1005.0 |
| 20260505020049 | 54 | 162 | 1.7 | 0.0 | 0.00 | 0.00 | 0.00 | 70 | 1005.0 |
| 20260505015548 | 54 | 162 | 0.9 | 0.0 | 0.00 | 0.00 | 0.00 | 70 | 1005.0 |
| 20260505015048 | 54 | 162 | 0.0 | 0.0 | 0.00 | 0.00 | 0.00 | 69 | 1005.0 |
| 20260505014548 | 54 | 162 | 0.9 | 0.0 | 0.00 | 0.00 | 0.00 | 69 | 1004.9 |
| 20260505014048 | 55 | 162 | 1.7 | 0.0 | 0.00 | 0.00 | 0.00 | 69 | 1005.0 |
| 20260505013547 | 55 | 162 | 4.3 | 0.0 | 0.00 | 0.00 | 0.00 | 68 | 1005.0 |
| 20260505013046 | 55 | 142 | 5.2 | 0.0 | 0.00 | 0.00 | 0.00 | 66 | 1004.9 |
| 20260505012546 | 56 | 138 | 5.2 | 0.0 | 0.00 | 0.00 | 0.00 | 66 | 1004.9 |
| 20260505012048 | 56 | 140 | 4.3 | 0.0 | 0.00 | 0.00 | 0.00 | 65 | 1004.8 |
| 20260505011554 | 56 | 138 | 5.2 | 0.0 | 0.00 | 0.00 | 0.00 | 64 | 1004.7 |
| 20260505011046 | 56 | 137 | 5.2 | 0.0 | 0.00 | 0.00 | 0.00 | 63 | 1004.7 |
| 20260505010548 | 57 | 140 | 5.2 | 0.0 | 0.00 | 0.00 | 0.00 | 63 | 1004.6 |
| 20260505010046 | 57 | 136 | 5.2 | 0.0 | 0.00 | 0.00 | 0.00 | 62 | 1004.6 |
| 20260505005545 | 58 | 137 | 5.2 | 0.0 | 0.00 | 0.00 | 0.00 | 62 | 1004.6 |
| 20260505005045 | 58 | 140 | 4.3 | 0.0 | 0.00 | 0.00 | 0.00 | 61 | 1004.5 |
| 20260505004547 | 58 | 137 | 4.3 | 0.0 | 0.00 | 0.00 | 0.00 | 60 | 1004.5 |
| 20260505004044 | 59 | 148 | 4.3 | 0.0 | 0.00 | 0.00 | 0.00 | 59 | 1004.4 |
| 20260505003544 | 59 | 130 | 4.3 | 0.0 | 0.00 | 0.00 | 0.00 | 59 | 1004.5 |
| 20260505003044 | 60 | 136 | 4.3 | 0.0 | 0.00 | 0.00 | 0.00 | 58 | 1004.4 |
| 20260505002545 | 60 | 134 | 5.2 | 0.0 | 0.00 | 0.00 | 0.00 | 59 | 1004.3 |
| 20260505002045 | 61 | 136 | 5.2 | 0.0 | 0.00 | 0.00 | 0.00 | 59 | 1004.2 |
| 20260505001545 | 62 | 136 | 4.3 | 0.0 | 0.00 | 0.00 | 0.00 | 59 | 1004.2 |
| 20260505001044 | 62 | 136 | 4.3 | 0.0 | 0.00 | 0.00 | 0.00 | 57 | 1004.3 |
| 20260505000545 | 63 | 137 | 4.3 | 0.0 | 0.00 | 0.00 | 0.00 | 52 | 1004.2 |
| 20260505000045 | 63 | 140 | 3.5 | 0.0 | 0.00 | 0.00 | 0.00 | 52 | 1004.2 |
| 20260504235543 | 64 | 186 | 3.5 | 0.0 | 0.00 | 0.00 | 0.00 | 50 | 1004.3 |
| 20260504235043 | 64 | 186 | 1.7 | 0.0 | 0.00 | 0.00 | 0.00 | 51 | 1004.4 |
| 20260504234542 | 65 | 226 | 0.9 | 0.0 | 0.00 | 0.00 | 0.00 | 50 | 1004.4 |
| 20260504234045 | 65 | 227 | 0.9 | 0.0 | 0.00 | 0.00 | 0.00 | 45 | 1004.2 |
| 20260504233542 | 65 | 228 | 3.5 | 0.0 | 0.00 | 0.00 | 0.00 | 45 | 1004.1 |
| 20260504233055 | 65 | 225 | 4.3 | 0.0 | 0.00 | 0.00 | 0.00 | 47 | 1004.1 |
| 20260504232542 | 66 | 248 | 5.2 | 0.0 | 0.00 | 0.00 | 0.00 | 47 | 1003.9 |
| 20260504232042 | 66 | 221 | 5.2 | 0.0 | 0.00 | 0.00 | 0.00 | 50 | 1003.9 |
| 20260504231541 | 66 | 225 | 7.0 | 0.0 | 0.00 | 0.00 | 0.00 | 49 | 1004.0 |
| 20260504231041 | 67 | 234 | 8.7 | 0.0 | 0.00 | 0.00 | 0.00 | 49 | 1004.0 |
| 20260504230541 | 67 | 232 | 9.6 | 0.0 | 0.00 | 0.00 | 0.00 | 46 | 1004.0 |
| 20260504230043 | 67 | 219 | 8.7 | 0.0 | 0.00 | 0.00 | 0.00 | 47 | 1003.9 |
| 20260504225540 | 68 | 251 | 7.8 | 0.0 | 0.00 | 0.00 | 0.00 | 46 | 1003.9 |
| 20260504225039 | 68 | 241 | 9.6 | 0.0 | 0.00 | 0.00 | 0.00 | 49 | 1003.9 |
| 20260504224539 | 68 | 218 | 9.6 | 0.0 | 0.00 | 0.00 | 0.00 | 45 | 1003.8 |
| 20260504224041 | 68 | 211 | 7.8 | 0.0 | 0.00 | 0.00 | 0.00 | 44 | 1003.7 |
| 20260504223538 | 68 | 250 | 8.7 | 0.0 | 0.00 | 0.00 | 0.00 | 41 | 1003.6 |
| 20260504223038 | 68 | 225 | 7.0 | 0.0 | 0.00 | 0.00 | 0.00 | 42 | 1003.5 |
| 20260504222537 | 68 | 234 | 7.0 | 0.0 | 0.00 | 0.00 | 0.00 | 48 | 1003.5 |
| 20260504222035 | 68 | 232 | 7.8 | 0.0 | 0.00 | 0.00 | 0.00 | 44 | 1003.6 |
| 20260504221538 | 68 | 225 | 7.8 | 0.0 | 0.00 | 0.00 | 0.00 | 43 | 1003.7 |
| 20260504221033 | 68 | 230 | 8.7 | 0.0 | 0.00 | 0.00 | 0.00 | 44 | 1003.8 |
| 20260504220533 | 68 | 240 | 9.6 | 0.0 | 0.00 | 0.00 | 0.00 | 47 | 1003.8 |
| 20260504220030 | 68 | 250 | 8.7 | 0.0 | 0.00 | 0.00 | 0.00 | 47 | 1003.9 |
| 20260504215530 | 68 | 219 | 7.0 | 0.0 | 0.00 | 0.00 | 0.00 | 44 | 1003.9 |
| 20260504215030 | 68 | 227 | 8.7 | 0.0 | 0.00 | 0.00 | 0.00 | 47 | 1003.9 |
| 20260504214529 | 68 | 221 | 9.6 | 0.0 | 0.00 | 0.00 | 0.00 | 46 | 1003.9 |
| 20260504214028 | 68 | 215 | 8.7 | 0.0 | 0.00 | 0.00 | 0.00 | 47 | 1004.0 |
| 20260504213530 | 68 | 238 | 8.7 | 0.0 | 0.00 | 0.00 | 0.00 | 46 | 1004.0 |
| 20260504213028 | 67 | 230 | 9.6 | 0.0 | 0.00 | 0.00 | 0.00 | 45 | 1004.0 |
| 20260504212528 | 67 | 224 | 9.6 | 0.0 | 0.00 | 0.00 | 0.00 | 46 | 1004.0 |
| 20260504212028 | 67 | 221 | 10.4 | 0.0 | 0.00 | 0.00 | 0.00 | 52 | 1004.0 |
| 20260504211526 | 67 | 247 | 11.3 | 0.0 | 0.00 | 0.00 | 0.00 | 48 | 1004.1 |
| 20260504211027 | 67 | 239 | 11.3 | 0.0 | 0.00 | 0.00 | 0.00 | 48 | 1004.1 |
| 20260504210527 | 67 | 246 | 10.4 | 0.0 | 0.00 | 0.00 | 0.00 | 50 | 1004.1 |
| 20260504210025 | 67 | 219 | 9.6 | 0.0 | 0.00 | 0.00 | 0.00 | 48 | 1004.1 |
| 20260504205529 | 68 | 229 | 9.6 | 0.0 | 0.00 | 0.00 | 0.00 | 48 | 1004.2 |
| 20260504205023 | 67 | 232 | 9.6 | 0.0 | 0.00 | 0.00 | 0.00 | 51 | 1004.2 |
| 20260504204531 | 67 | 223 | 11.3 | 0.0 | 0.00 | 0.00 | 0.00 | 49 | 1004.2 |
| 20260504204023 | 67 | 229 | 12.2 | 0.0 | 0.00 | 0.00 | 0.00 | 47 | 1004.2 |
| 20260504203523 | 66 | 223 | 11.3 | 0.0 | 0.00 | 0.00 | 0.00 | 49 | 1004.3 |
| 20260504203025 | 66 | 207 | 9.6 | 0.0 | 0.00 | 0.00 | 0.00 | 53 | 1004.3 |
| 20260504202522 | 66 | 250 | 9.6 | 0.0 | 0.00 | 0.00 | 0.00 | 52 | 1004.3 |
| 20260504202022 | 66 | 242 | 10.4 | 0.0 | 0.00 | 0.00 | 0.00 | 55 | 1004.3 |
| 20260504201521 | 67 | 234 | 8.7 | 0.0 | 0.00 | 0.00 | 0.00 | 54 | 1004.3 |
| 20260504201021 | 67 | 258 | 7.8 | 0.0 | 0.00 | 0.00 | 0.00 | 55 | 1004.4 |
| 20260504200520 | 67 | 236 | 8.7 | 0.0 | 0.00 | 0.00 | 0.00 | 52 | 1004.4 |
| 20260504200020 | 68 | 235 | 9.6 | 0.0 | 0.00 | 0.00 | 0.00 | 51 | 1004.5 |
| 20260504195518 | 68 | 249 | 11.3 | 0.0 | 0.00 | 0.00 | 0.00 | 50 | 1004.6 |
| 20260504195018 | 68 | 239 | 11.3 | 0.0 | 0.00 | 0.00 | 0.00 | 50 | 1004.7 |
| 20260504194518 | 68 | 241 | 13.0 | 0.0 | 0.00 | 0.00 | 0.00 | 48 | 1004.8 |
| 20260504194017 | 68 | 234 | 14.8 | 0.0 | 0.00 | 0.00 | 0.00 | 51 | 1004.9 |
| 20260504193515 | 67 | 227 | 14.8 | 0.0 | 0.00 | 0.00 | 0.00 | 51 | 1004.9 |
| 20260504193015 | 67 | 221 | 14.8 | 0.0 | 0.00 | 0.00 | 0.00 | 46 | 1004.9 |
| 20260504192514 | 67 | 244 | 13.9 | 0.0 | 0.00 | 0.00 | 0.00 | 55 | 1005.0 |
| 20260504192012 | 67 | 236 | 15.6 | 0.0 | 0.00 | 0.00 | 0.00 | 54 | 1005.1 |
| 20260504191514 | 66 | 246 | 17.4 | 0.0 | 0.00 | 0.00 | 0.00 | 53 | 1005.1 |
| 20260504191012 | 66 | 247 | 17.4 | 0.0 | 0.00 | 0.00 | 0.00 | 55 | 1005.2 |
| 20260504190511 | 67 | 241 | 14.8 | 0.0 | 0.00 | 0.00 | 0.00 | 54 | 1005.3 |
| 20260504190010 | 67 | 252 | 17.4 | 0.0 | 0.00 | 0.00 | 0.00 | 53 | 1005.3 |
| 20260504185509 | 67 | 247 | 19.1 | 0.0 | 0.00 | 0.00 | 0.00 | 53 | 1005.3 |
| 20260504185009 | 67 | 255 | 18.2 | 0.0 | 0.00 | 0.00 | 0.00 | 55 | 1005.4 |
| 20260504184513 | 67 | 252 | 17.4 | 0.0 | 0.00 | 0.00 | 0.00 | 57 | 1005.4 |
| 20260504184008 | 67 | 250 | 15.6 | 0.0 | 0.00 | 0.00 | 0.00 | 57 | 1005.4 |
| 20260504183507 | 66 | 244 | 13.9 | 0.0 | 0.00 | 0.00 | 0.00 | 54 | 1005.4 |
| 20260504183005 | 65 | 248 | 13.0 | 0.0 | 0.00 | 0.00 | 0.00 | 57 | 1005.4 |
| 20260504182504 | 65 | 251 | 12.2 | 0.0 | 0.00 | 0.00 | 0.00 | 53 | 1005.5 |
| 20260504182004 | 64 | 261 | 13.9 | 0.0 | 0.00 | 0.00 | 0.00 | 57 | 1005.5 |
| 20260504181504 | 64 | 246 | 15.6 | 0.0 | 0.00 | 0.00 | 0.00 | 55 | 1005.6 |
| 20260504181004 | 64 | 234 | 13.9 | 0.0 | 0.00 | 0.00 | 0.00 | 53 | 1005.6 |
| 20260504180504 | 64 | 250 | 11.3 | 0.0 | 0.00 | 0.00 | 0.00 | 56 | 1005.6 |
| 20260504180004 | 64 | 244 | 11.3 | 0.0 | 0.00 | 0.00 | 0.00 | 55 | 1005.6 |
| 20260504175502 | 65 | 238 | 12.2 | 0.0 | 0.00 | 0.00 | 0.00 | 54 | 1005.6 |
| 20260504175001 | 65 | 263 | 11.3 | 0.0 | 0.00 | 0.00 | 0.00 | 53 | 1005.6 |
| 20260504174501 | 65 | 196 | 12.2 | 0.0 | 0.00 | 0.00 | 0.00 | 51 | 1005.6 |
| 20260504174002 | 65 | 215 | 13.0 | 0.0 | 0.00 | 0.00 | 0.00 | 53 | 1005.7 |
| 20260504173604 | 65 | 252 | 12.2 | 0.0 | 0.00 | 0.00 | 0.00 | 57 | 1005.7 |
| 20260504173101 | 65 | 252 | 11.3 | 0.0 | 0.00 | 0.00 | 0.00 | 55 | 1005.8 |
| 20260504172558 | 65 | 255 | 13.0 | 0.0 | 0.00 | 0.00 | 0.00 | 58 | 1005.9 |
| 20260504172057 | 65 | 258 | 15.6 | 0.0 | 0.00 | 0.00 | 0.00 | 56 | 1006.0 |
| 20260504171557 | 65 | 246 | 17.4 | 0.0 | 0.00 | 0.00 | 0.00 | 56 | 1006.0 |
| 20260504171056 | 64 | 224 | 16.5 | 0.0 | 0.00 | 0.00 | 0.00 | 56 | 1006.1 |
| 20260504170555 | 64 | 246 | 15.6 | 0.0 | 0.00 | 0.00 | 0.00 | 57 | 1006.1 |